Weather History for Marshall, MI

Change the Weather History Date:

Thursday, September 19, 2013

  Actual Average (KBTL) Record (KBTL)
Temperature  
Mean Temperature 66 °F 60 °F  
Max Temperature 74 °F 72 °F 86 °F (2002)
Min Temperature 59 °F 49 °F 40 °F (2012)
Degree Days  
Heating Degree Days 0 6  
Month to date heating degree days 67  
Since 1 July heating degree days 108  
Cooling Degree Days 2 1  
Month to date cooling degree days 45  
Year to date cooling degree days 563  
Growing Degree Days 16 (Base 50)    
Moisture  
Dew Point 62 °F    
Average Humidity 85    
Maximum Humidity 91    
Minimum Humidity 73    
Precipitation  
Precipitation 0.00 in 0.13 in 1.20 in (2002)
Month to date precipitation 2.29  
Year to date precipitation 23.83  
Sea Level Pressure  
Sea Level Pressure 29.98 in    
Wind  
Wind Speed 3 mph (SSE)    
Max Wind Speed 12 mph    
Max Gust Speed 16 mph    
Visibility 10 miles    
Events Rain    
T = Trace of Precipitation, MM = Missing Value Source: NWS Daily Summary

Daily Weather History Graph

Daily Weather History Graph

Search for Another Location

Airport:

Trip Planner

Search our weather history database for the weather conditions in past years. The results will help you decide how hot, cold, wet, or windy it might be!

Date:

Astronomy

Sep. 19, 2013 Rise Set
Actual Time 7:24 AM EDT 7:41 PM EDT
Civil Twilight 6:56 AM EDT 8:09 PM EDT
Nautical Twilight 6:23 AM EDT 8:42 PM EDT
Astronomical Twilight 5:49 AM EDT 9:16 PM EDT
Moon 7:38 PM EDT (9/19) 7:33 AM EDT (9/19)
Length of Visible Light 13h 13m
Length of Day
12h 17m
Full, 100% of the Moon is Illuminated
Sep 19
Full
Sep 26
Last Quarter
Oct 4
New
Oct 11
First Quarter
Oct 18
Full

Hourly Weather History & Observations

Time (EDT) Temp. Dew Point Humidity Pressure Visibility Wind Dir Wind Speed Gust Speed Precip Events Conditions
12:13 AM 63.9 °F 55.2 °F 73% 30.04 in 10.0 mi East 3.5 mph - N/A   Overcast
12:34 AM 63.3 °F 55.9 °F 77% 30.03 in 10.0 mi ESE 4.6 mph - N/A   Overcast
12:54 AM 63.5 °F 56.3 °F 77% 30.03 in 10.0 mi ESE 3.5 mph - N/A   Overcast
1:13 AM 62.8 °F 56.5 °F 80% 30.03 in 10.0 mi ESE 3.5 mph - N/A   Mostly Cloudy
1:34 AM 63.5 °F 57.2 °F 80% 30.02 in 10.0 mi Calm Calm - N/A   Mostly Cloudy
1:53 AM 62.8 °F 57.4 °F 82% 30.02 in 10.0 mi Calm Calm - N/A   Scattered Clouds
2:14 AM 62.4 °F 57.2 °F 83% 30.02 in 10.0 mi Calm Calm - N/A   Clear
2:34 AM 61.7 °F 56.8 °F 84% 30.02 in 10.0 mi Calm Calm - N/A   Clear
2:53 AM 62.8 °F 56.7 °F 80% 30.02 in 10.0 mi Calm Calm - N/A   Clear
3:14 AM 62.2 °F 56.1 °F 80% 30.02 in 10.0 mi Calm Calm - N/A   Clear
3:34 AM 62.6 °F 56.5 °F 80% 30.01 in 10.0 mi Calm Calm - N/A   Clear
3:53 AM 62.1 °F 56.5 °F 82% 30.01 in 10.0 mi Calm Calm - N/A   Clear
4:14 AM 61.2 °F 56.5 °F 85% 30.01 in 10.0 mi Calm Calm - N/A   Clear
4:34 AM 59.9 °F 55.8 °F 86% 30.01 in 10.0 mi Calm Calm - N/A   Scattered Clouds
4:53 AM 60.4 °F 56.1 °F 86% 30.00 in 10.0 mi SSE 3.5 mph - N/A   Mostly Cloudy
5:14 AM 62.2 °F 57.4 °F 84% 29.99 in 10.0 mi SE 3.5 mph - N/A   Mostly Cloudy
5:34 AM 62.4 °F 57.6 °F 84% 30.01 in 10.0 mi SSE 3.5 mph - N/A   Mostly Cloudy
5:53 AM 62.4 °F 57.9 °F 85% 30.01 in 10.0 mi Calm Calm - N/A   Overcast
6:14 AM 61.7 °F 57.6 °F 86% 30.01 in 10.0 mi SE 3.5 mph - N/A   Scattered Clouds
6:34 AM 61.5 °F 57.6 °F 87% 30.01 in 10.0 mi Calm Calm - N/A   Scattered Clouds
6:53 AM 61.5 °F 57.7 °F 87% 30.02 in 10.0 mi Calm Calm - N/A   Scattered Clouds
7:14 AM 60.6 °F 57.2 °F 88% 30.02 in 10.0 mi Calm Calm - N/A   Scattered Clouds
7:34 AM 61.0 °F 57.9 °F 90% 30.03 in 10.0 mi Calm Calm - N/A   Scattered Clouds
7:53 AM 61.5 °F 58.6 °F 90% 30.03 in 10.0 mi Calm Calm - N/A   Scattered Clouds
8:14 AM 61.9 °F 58.8 °F 90% 30.03 in 10.0 mi Calm Calm - N/A   Scattered Clouds
8:34 AM 62.1 °F 59.4 °F 91% 30.04 in 7.0 mi Calm Calm - N/A   Clear
8:53 AM 62.6 °F 60.1 °F 91% 30.03 in 7.0 mi SE 3.5 mph - N/A   Scattered Clouds
9:14 AM 63.7 °F 60.8 °F 90% 30.03 in 7.0 mi Calm Calm - N/A   Clear
9:34 AM 64.0 °F 61.3 °F 91% 30.02 in 7.0 mi SE 3.5 mph - N/A   Clear
9:53 AM 66.2 °F 63.0 °F 89% 30.02 in 10.0 mi SE 3.5 mph - N/A   Clear
10:14 AM 69.4 °F 64.8 °F 85% 30.01 in 10.0 mi South 6.9 mph - N/A   Clear
10:34 AM 72.1 °F 65.7 °F 80% 30.02 in 10.0 mi South 4.6 mph - N/A   Scattered Clouds
10:53 AM 73.2 °F 65.3 °F 76% 30.02 in 10.0 mi SSW 4.6 mph - N/A   Scattered Clouds
11:14 AM 74.1 °F 65.7 °F 75% 30.02 in 10.0 mi South 3.5 mph - N/A   Scattered Clouds
11:34 AM 73.8 °F 66.0 °F 77% 30.02 in 10.0 mi South 4.6 mph - N/A   Mostly Cloudy
11:53 AM 73.8 °F 66.6 °F 78% 30.02 in 10.0 mi SSW 6.9 mph - N/A   Mostly Cloudy
12:14 PM 73.6 °F 66.7 °F 79% 30.02 in 10.0 mi SW 5.8 mph - N/A   Scattered Clouds
12:34 PM 73.6 °F 67.1 °F 80% 30.01 in 10.0 mi SSW 5.8 mph - N/A   Clear
12:53 PM 73.8 °F 67.5 °F 81% 30.01 in 10.0 mi SW 4.6 mph - N/A   Clear
1:14 PM 73.6 °F 66.6 °F 79% 30.01 in 10.0 mi SW 6.9 mph - N/A   Scattered Clouds
1:34 PM 72.7 °F 66.4 °F 81% 30.01 in 10.0 mi SW 11.5 mph 16.1 mph N/A   Clear
1:50 PM 71.6 °F 66.6 °F 84% 30.01 in 10.0 mi SW 9.2 mph - N/A   Light Drizzle
2:14 PM 70.3 °F 65.8 °F 86% 30.00 in 10.0 mi SSW 10.4 mph - N/A   Mostly Cloudy
2:34 PM 69.6 °F 65.8 °F 88% 29.98 in 10.0 mi SSW 8.1 mph - N/A Rain Light Rain
2:53 PM 69.4 °F 65.8 °F 88% 29.96 in 10.0 mi South 8.1 mph - N/A   Clear
3:14 PM 69.4 °F 65.7 °F 88% 29.97 in 10.0 mi South 6.9 mph - N/A   Clear
3:34 PM 69.4 °F 65.7 °F 88% 29.99 in 10.0 mi SW 8.1 mph - N/A   Mostly Cloudy
3:53 PM 69.8 °F 65.7 °F 87% 29.97 in 10.0 mi South 5.8 mph - N/A   Mostly Cloudy
4:14 PM 70.0 °F 65.7 °F 86% 29.97 in 10.0 mi SSW 4.6 mph - N/A   Scattered Clouds
4:33 PM 69.8 °F 65.7 °F 87% 29.96 in 10.0 mi SSW 4.6 mph - N/A   Scattered Clouds
4:53 PM 69.8 °F 65.7 °F 87% 29.95 in 10.0 mi SSE 4.6 mph - N/A   Scattered Clouds
5:14 PM 70.3 °F 65.7 °F 85% 29.94 in 10.0 mi ESE 5.8 mph - N/A   Scattered Clouds
5:34 PM 70.3 °F 65.7 °F 85% 29.94 in 10.0 mi SSE 4.6 mph - N/A   Clear
5:53 PM 70.9 °F 65.8 °F 84% 29.93 in 10.0 mi SE 5.8 mph - N/A   Clear
6:14 PM 71.1 °F 65.3 °F 82% 29.93 in 10.0 mi SE 5.8 mph - N/A   Clear
6:34 PM 70.2 °F 65.1 °F 84% 29.93 in 10.0 mi SSE 5.8 mph - N/A   Scattered Clouds
6:53 PM 70.3 °F 64.9 °F 83% 29.92 in 10.0 mi SE 8.1 mph - N/A   Scattered Clouds
7:14 PM 69.6 °F 65.1 °F 86% 29.92 in 10.0 mi SE 6.9 mph - N/A   Scattered Clouds
7:33 PM 69.1 °F 64.9 °F 87% 29.92 in 10.0 mi SSE 5.8 mph - N/A   Clear
7:53 PM 68.5 °F 64.8 °F 88% 29.91 in 10.0 mi SSE 4.6 mph - N/A   Clear
8:14 PM 68.5 °F 64.9 °F 88% 29.91 in 10.0 mi SE 5.8 mph - N/A   Clear
8:34 PM 68.2 °F 64.8 °F 89% 29.92 in 10.0 mi SE 4.6 mph - N/A   Clear
8:53 PM 68.0 °F 64.8 °F 89% 29.92 in 10.0 mi SE 4.6 mph - N/A   Clear
9:14 PM 67.8 °F 64.6 °F 89% 29.93 in 10.0 mi SSE 4.6 mph - N/A   Scattered Clouds
9:33 PM 68.0 °F 64.9 °F 90% 29.93 in 10.0 mi SSE 8.1 mph - N/A   Scattered Clouds
9:54 PM 68.2 °F 65.1 °F 90% 29.94 in 10.0 mi SSE 5.8 mph - N/A   Clear
10:14 PM 68.5 °F 65.3 °F 89% 29.93 in 10.0 mi SSE 6.9 mph - N/A   Clear
10:33 PM 68.7 °F 65.5 °F 89% 29.93 in 10.0 mi SSE 5.8 mph - N/A   Mostly Cloudy
10:54 PM 68.7 °F 65.5 °F 89% 29.92 in 10.0 mi South 6.9 mph - N/A   Overcast
11:14 PM 68.5 °F 65.3 °F 89% 29.91 in 10.0 mi South 8.1 mph - N/A   Mostly Cloudy
11:33 PM 68.7 °F 65.5 °F 89% 29.91 in 10.0 mi South 8.1 mph - N/A   Mostly Cloudy
11:54 PM 68.7 °F 65.5 °F 89% 29.90 in 10.0 mi South 10.4 mph - N/A   Scattered Clouds